Total_Precipitation_Accumulation
2.44 2.47 2.29 2.26 2.37 2.38 2.55 2.79 2.85 2.66 2.51 2.30 1.86 1.60 1.65 1.85 2.09 1.86 1.79 1.68 1.52 1.43 1.35 1.33 1.36 1.42 1.51 1.64 1.84 2.02 2.12 2.18 2.22 2.17 2.22 2.35 2.41 2.50
2.25 2.29 2.24 2.20 2.32 2.27 2.33 2.54 2.73 2.78 2.55 2.27 2.02 1.70 1.74 1.69 1.93 1.87 1.90 1.84 1.61 1.43 1.27 1.18 1.19 1.27 1.37 1.45 1.52 1.64 1.70 1.71 1.76 1.81 1.81 1.82 1.85 1.92
1.95 1.99 2.02 2.13 2.27 2.26 2.30 2.34 2.57 2.85 2.72 2.51 2.33 2.14 2.02 1.91 1.77 1.76 1.74 1.68 1.51 1.37 1.17 1.08 1.10 1.13 1.18 1.26 1.36 1.46 1.54 1.59 1.61 1.63 1.67 1.70 1.71 1.73
1.90 2.00 1.90 2.05 2.21 2.16 2.26 2.28 2.45 2.76 2.85 2.95 2.93 2.63 2.34 2.18 2.09 1.92 1.59 1.48 1.52 1.44 1.27 1.14 1.08 1.07 1.06 1.08 1.16 1.30 1.41 1.49 1.52 1.54 1.55 1.58 1.65 1.70
1.97 1.98 1.84 1.94 2.00 2.01 2.10 2.19 2.37 2.56 2.78 2.78 2.82 2.68 2.50 2.26 2.36 2.09 1.80 1.73 1.41 1.37 1.30 1.14 1.07 1.04 1.02 1.04 1.10 1.15 1.23 1.33 1.37 1.47 1.56 1.58 1.61 1.64
1.94 1.85 1.71 1.70 1.77 1.91 1.90 2.04 2.25 2.44 2.59 2.55 2.60 2.66 2.70 2.69 2.72 2.51 2.32 2.07 1.71 1.34 1.35 1.20 1.16 1.07 0.97 0.93 0.96 1.03 1.15 1.27 1.32 1.38 1.48 1.55 1.60 1.65
1.81 1.63 1.41 1.42 1.51 1.59 1.56 1.87 2.12 2.22 2.32 2.38 2.46 2.65 2.77 2.98 2.80 2.68 2.58 2.48 2.16 1.83 1.77 1.44 1.32 1.15 1.00 0.96 0.96 0.96 1.02 1.17 1.27 1.35 1.42 1.49 1.58 1.67
1.69 1.65 1.46 1.31 1.24 1.28 1.27 1.44 1.74 1.89 2.06 2.31 2.44 2.63 2.72 2.76 2.94 2.91 2.85 2.69 2.44 2.16 2.13 2.05 1.87 1.72 1.42 1.14 1.10 0.99 0.92 1.02 1.19 1.29 1.40 1.48 1.54 1.61
1.59 1.60 1.37 1.24 1.28 1.16 1.22 1.29 1.33 1.42 1.57 1.93 2.20 2.29 2.33 2.40 2.69 2.82 2.83 2.71 2.62 2.46 2.48 2.47 2.31 2.04 1.61 1.40 1.34 1.14 1.04 1.00 1.07 1.16 1.22 1.33 1.44 1.53
1.34 1.35 1.36 1.35 1.27 1.29 1.25 1.26 1.20 1.22 1.29 1.34 1.49 1.67 1.92 2.13 2.35 2.59 2.85 2.81 2.75 2.68 2.65 2.72 2.53 2.37 1.99 1.67 1.51 1.26 1.16 1.13 1.15 1.16 1.19 1.21 1.27 1.38
1.37 1.38 1.43 1.48 1.46 1.29 1.23 1.27 1.29 1.34 1.29 1.32 1.27 1.33 1.46 1.59 1.77 2.05 2.37 2.69 2.91 2.90 2.68 2.74 2.65 2.66 2.59 2.18 1.75 1.49 1.23 1.14 1.12 1.13 1.15 1.16 1.18 1.27
1.66 1.66 1.54 1.39 1.36 1.23 1.23 1.33 1.30 1.31 1.24 1.23 1.19 1.17 1.17 1.30 1.45 1.63 1.89 2.24 2.51 2.66 2.58 2.70 2.85 3.15 3.29 2.80 2.19 1.74 1.50 1.38 1.25 1.14 1.13 1.14 1.18 1.09
1.61 1.57 1.43 1.24 1.11 1.07 1.06 1.15 1.23 1.18 1.18 1.24 1.30 1.29 1.30 1.34 1.39 1.47 1.73 1.93 2.06 2.01 1.99 2.35 2.59 2.84 3.18 3.12 2.86 2.49 2.14 1.83 1.57 1.39 1.33 1.33 1.34 1.25
1.67 1.60 1.44 1.25 1.10 1.04 0.92 0.98 1.04 0.98 1.04 1.19 1.27 1.30 1.31 1.31 1.37 1.49 1.67 1.86 2.02 1.98 1.94 2.15 2.37 2.56 2.65 2.64 2.67 2.70 2.64 2.42 2.10 1.81 1.59 1.63 1.58 1.59
1.47 1.62 1.49 1.21 1.03 0.96 0.94 0.87 0.79 0.80 0.94 1.03 1.10 1.17 1.20 1.25 1.35 1.52 1.75 1.91 1.95 1.91 1.83 1.96 2.17 2.39 2.49 2.41 2.31 2.29 2.34 2.31 2.22 2.13 2.04 1.89 1.73 1.65
1.31 1.32 1.27 1.14 0.98 0.99 1.00 0.89 0.79 0.86 0.92 0.91 0.97 1.06 1.11 1.20 1.34 1.44 1.60 1.80 1.93 1.85 1.81 1.89 2.05 2.24 2.26 2.22 2.16 2.06 2.07 2.16 2.21 2.27 2.28 2.19 2.04 1.92
1.26 1.29 1.25 1.26 1.16 1.11 1.13 1.08 1.03 1.07 1.04 0.98 1.00 1.04 1.09 1.15 1.22 1.34 1.47 1.57 1.67 1.68 1.68 1.74 1.85 2.00 1.99 1.97 1.96 1.85 1.82 1.79 1.92 2.16 2.35 2.32 2.11 1.97
1.15 1.26 1.37 1.38 1.35 1.34 1.33 1.30 1.28 1.24 1.23 1.25 1.22 1.17 1.17 1.19 1.18 1.23 1.35 1.41 1.40 1.43 1.51 1.53 1.63 1.81 1.89 1.80 1.59 1.54 1.54 1.56 1.59 1.79 2.02 2.17 2.05 1.91
1.11 1.24 1.40 1.45 1.46 1.48 1.42 1.39 1.41 1.36 1.35 1.35 1.32 1.30 1.32 1.33 1.29 1.29 1.35 1.42 1.38 1.34 1.37 1.50 1.56 1.65 1.68 1.59 1.39 1.18 1.34 1.47 1.51 1.51 1.56 1.69 1.75 1.65
1.21 1.38 1.55 1.55 1.56 1.54 1.47 1.42 1.42 1.36 1.32 1.32 1.32 1.32 1.33 1.38 1.38 1.35 1.35 1.40 1.40 1.36 1.36 1.38 1.43 1.44 1.46 1.47 1.38 1.20 1.05 1.26 1.39 1.40 1.37 1.40 1.38 1.42
1.39 1.49 1.51 1.50 1.52 1.49 1.42 1.38 1.40 1.37 1.33 1.34 1.33 1.33 1.34 1.42 1.42 1.39 1.34 1.38 1.34 1.27 1.25 1.27 1.28 1.31 1.38 1.51 1.45 1.26 1.11 1.07 1.19 1.26 1.32 1.43 1.40 1.35
1.36 1.36 1.34 1.33 1.36 1.37 1.38 1.41 1.46 1.43 1.41 1.40 1.33 1.32 1.33 1.36 1.37 1.37 1.34 1.32 1.30 1.26 1.21 1.23 1.26 1.32 1.41 1.49 1.45 1.34 1.26 1.24 1.23 1.26 1.27 1.30 1.29 1.25
1.28 1.29 1.27 1.24 1.21 1.26 1.30 1.33 1.36 1.37 1.33 1.29 1.26 1.25 1.23 1.28 1.26 1.23 1.24 1.21 1.22 1.24 1.28 1.29 1.30 1.33 1.35 1.43 1.51 1.48 1.36 1.34 1.37 1.33 1.16 1.07 1.00 0.92